Location: Christian Reformed Church
(43.0975°N, 93.8113°W)
Time: 12:35:26
(UTC+00:00)

Okean 1-7 Rocket - Pass Details

Date: 18 March 2026
Orbit: 609 x 643 km, 82.5° (Epoch: 14 April)

Event Time Altitude Azimuth Distance (km) Brightness Sun altitude
Rises 00:52:46 0° 203° (SSW) 2,939 7.3 -6.0°
Reaches altitude 10° 00:55:05 10° 209° (SSW) 2,034 6.6 -6.5°
Maximum altitude 00:59:25 45° 282° (WNW) 882 5.0 -7.2°
Drops below altitude 10° 01:03:46 10° 356° (N) 2,041 6.4 -8.0°
Sets 01:06:07 0° 3° (N) 2,951 7.1 -8.5°
